Location: Boone Canyon
(38.3180°N, 119.2504°W)
Time: 18:19:30
(UTC+00:00)

Meteor 1-27 Rocket - Pass Details

Date: 18 September 2020
Orbit: 830 x 910 km, 81.3° (Epoch: 19 October)

Event Time Altitude Azimuth Distance (km) Brightness Sun altitude
Rises 12:14:53 0° 181° (S) 3,513 6.7 -17.6°
Reaches altitude 10° 12:17:20 10° 179° (S) 2,581 6.1 -17.1°
Maximum altitude 12:23:12 72° 96° (E) 958 4.1 -16.0°
Drops below altitude 10° 12:29:07 10° 13° (NNE) 2,597 6.6 -14.9°
Sets 12:31:35 0° 12° (NNE) 3,537 7.3 -14.4°
